Culdrose, United Kingdom

5:35 PM BST on April 26, 2017 (GMT +0100)
Culdrose Navy

Weather History for EGDR - October, 2011

Change the Weather History Date:

Wednesday, October 26, 2011

  Actual Average Record
Temperature  
Mean Temperature 52 °F -  
Max Temperature 56 °F 52 °F 62 °F (2005)
Min Temperature 47 °F 44 °F 37 °F (2003)
Degree Days  
Heating Degree Days 14    
Growing Degree Days 2 (Base 50)    
Moisture  
Dew Point 46 °F    
Average Humidity 78    
Maximum Humidity 96    
Minimum Humidity 59    
Precipitation  
Precipitation 0.02 in - - ()
Sea Level Pressure  
Sea Level Pressure 29.53 in    
Wind  
Wind Speed 10 mph ()    
Max Wind Speed 20 mph    
Max Gust Speed 23 mph    
Visibility 8.1 miles    
Events Rain , Hail    
Averages and records for this station are not official NWS values.
T = Trace of Precipitation, MM = Missing Value Source: Averaged Metar Reports

Daily Weather History Graph

Daily Weather History Graph

Search for Another Location

Airport or City:

Trip Planner

Search our weather history database for the weather conditions in past years. The results will help you decide how hot, cold, wet, or windy it might be!

Date:

Astronomy

Oct. 26, 2011 Rise Set
Actual Time 8:00 AM BST 6:09 PM BST
Civil Twilight 7:26 AM BST 6:42 PM BST
Nautical Twilight 6:48 AM BST 7:20 PM BST
Astronomical Twilight 6:11 AM BST 7:57 PM BST
Moon 7:33 AM BST 5:35 PM BST
Length of Visible Light 11h 15m
Length of Day
10h 08m
Waning Crescent, 0% of the Moon is Illuminated
Oct 26
Waning Crescent
Oct 26
New
Nov 2
First Quarter
Nov 10
Full
Nov 18
Last Quarter

Hourly Weather History & Observations

Time (BST) Temp. Dew Point Humidity Pressure Visibility Wind Dir Wind Speed Gust Speed Precip Events Conditions
12:50 AM 50 °F 44 °F 73% 29.50 in 19 mi SW 11.5 mph - -   Partly Cloudy
12:50 AM 50.0 °F 44.6 °F 82% 29.47 in 6.2 mi SW 11.5 mph - N/A   Scattered Clouds
1:50 AM 48.2 °F 42.8 °F 82% 29.47 in - South 6.9 mph - N/A   Clear
2:50 AM 48.2 °F 41.0 °F 76% 29.50 in 6.2 mi South 11.5 mph 23.0 mph N/A   Mostly Cloudy
3:50 AM 50 °F 45 °F 75% 29.50 in 9 mi SSW 9.2 mph - - Rain Light Rain Showers
3:50 AM 50.0 °F 44.6 °F 82% 29.47 in 6.2 mi SSW 9.2 mph - N/A   Mostly Cloudy
4:50 AM 48.2 °F 44.6 °F 87% 29.47 in 6.2 mi SW 5.8 mph - N/A   Partly Cloudy
5:50 AM 50.0 °F 44.6 °F 82% 29.50 in 6.2 mi SW 10.4 mph - N/A   Partly Cloudy
6:50 AM 50 °F 44 °F 75% 29.52 in 19 mi SW 10.4 mph - -   Partly Cloudy
6:50 AM 50.0 °F 44.6 °F 82% 29.50 in 6.2 mi SW 10.4 mph - N/A   Scattered Clouds
7:50 AM 50.0 °F 42.8 °F 76% 29.50 in 6.2 mi SW 17.3 mph - N/A Rain Light Rain Showers
8:50 AM 51.8 °F 44.6 °F 76% 29.53 in 6.2 mi WSW 15.0 mph - N/A   Scattered Clouds
9:50 AM 48 °F 44 °F 82% 29.57 in 11 mi SW 8.1 mph - - Hail Light Hail Showers
9:50 AM 48.2 °F 44.6 °F 87% 29.56 in 6.2 mi SW 8.1 mph - N/A   Scattered Clouds
10:50 AM 53.6 °F 46.4 °F 77% 29.56 in 6.2 mi SW 12.7 mph - N/A   Scattered Clouds
11:50 AM 55.4 °F 44.6 °F 67% 29.56 in 6.2 mi SW 17.3 mph - N/A   Partly Cloudy
12:50 PM 56 °F 46 °F 59% 29.59 in 12 mi SW 17.3 mph - -   Partly Cloudy
12:50 PM 57.2 °F 46.4 °F 67% 29.56 in 6.2 mi SW 17.3 mph - N/A   Scattered Clouds
1:50 PM 55.4 °F 44.6 °F 67% 29.56 in 6.2 mi SW 19.6 mph - N/A   Scattered Clouds
2:50 PM 53.6 °F 48.2 °F 82% 29.56 in 6.2 mi WSW 13.8 mph - N/A   Scattered Clouds
3:50 PM 55.4 °F 46.4 °F 72% 29.56 in 6.2 mi SSW 11.5 mph - N/A   Mostly Cloudy
4:50 PM 53.6 °F 48.2 °F 82% 29.56 in 6.2 mi South 6.9 mph - N/A   Scattered Clouds
6:50 PM 53 °F 49 °F 80% 29.59 in 16 mi SSE 6.9 mph - -   Mostly Cloudy
8:04 PM 53.6 °F 51.8 °F 94% 29.59 in 5.0 mi SE 8.1 mph - N/A Rain Light Rain
9:50 PM 52 °F 51 °F 96% 29.60 in 4 mi SSE 8.1 mph - - Rain Light Rain